Buffalo, NY

6:13 PM EST on November 17, 2019 (GMT -0500)
Buffalo Niagara International

Weather History for KBUF - September, 2019

Change the Weather History Date:

Sunday, September 1, 2019

  Actual Average Record
Temperature  
Mean Temperature 67 °F 67 °F  
Max Temperature 75 °F 76 °F 95 °F (1900)
Min Temperature 58 °F 58 °F 44 °F (1967)
Degree Days  
Heating Degree Days 0 1  
Month to date heating degree days 0 1  
Since 1 July heating degree days 3 28  
Cooling Degree Days 2 4  
Month to date cooling degree days 2 4  
Year to date cooling degree days 547 491  
Growing Degree Days 16 (Base 50)    
Moisture  
Dew Point 57 °F    
Average Humidity 73    
Maximum Humidity 93    
Minimum Humidity 53    
Precipitation  
Precipitation 0.90 in 0.12 in 1.34 in (1989)
Month to date precipitation 0.90 0.12  
Year to date precipitation 29.27 25.28  
Snow  
Snow 0.00 in 0.00 in 0.00 in ()
Month to date snowfall 0.0 0.0  
Since 1 July snowfall 0.0 0.0  
Since 1 September snowfall 0.0 0.0  
Snow Depth 0.00 in    
Sea Level Pressure  
Sea Level Pressure 30.17 in    
Wind  
Wind Speed 7 mph (ESE)    
Max Wind Speed 14 mph    
Max Gust Speed 18 mph    
Visibility 8 miles    
Events Rain , Thunderstorm    
T = Trace of Precipitation, MM = Missing Value Source: NWS Daily Summary

Daily Weather History Graph

Daily Weather History Graph

Search for Another Location

Airport or City:

Astronomy

Sep. 01, 2019 Rise Set
Actual Time 6:39 AM EDT 7:49 PM EDT
Civil Twilight 6:09 AM EDT 8:19 PM EDT
Nautical Twilight 5:34 AM EDT 8:53 PM EDT
Astronomical Twilight 4:58 AM EDT 9:30 PM EDT
Moon 9:09 AM EDT (9/1) 9:32 PM EDT (9/1)
Length of Visible Light 14h 09m
Length of Day
13h 10m
Waxing Crescent, 8% of the Moon is Illuminated
Sep 1
Waxing Crescent
Sep 5
First Quarter
Sep 14
Full
Sep 21
Last Quarter
Sep 28
New

Hourly Weather History & Observations

Time (EDT) Temp. Dew Point Humidity Pressure Visibility Wind Dir Wind Speed Gust Speed Precip Events Conditions
12:54 AM 59.0 °F 48.0 °F 67% 30.31 in 10.0 mi SE 5.8 mph - N/A   Mostly Cloudy
1:54 AM 59.0 °F 48.0 °F 67% 30.31 in 10.0 mi SE 6.9 mph - N/A   Overcast
2:54 AM 60.1 °F 46.9 °F 62% 30.28 in 10.0 mi ESE 6.9 mph - N/A   Overcast
3:54 AM 59.0 °F 46.9 °F 64% 30.27 in 10.0 mi ENE 4.6 mph - N/A   Overcast
4:54 AM 60.1 °F 48.0 °F 64% 30.27 in 10.0 mi ENE 4.6 mph - N/A   Overcast
5:54 AM 60.1 °F 50.0 °F 69% 30.27 in 10.0 mi NE 4.6 mph - N/A   Overcast
6:54 AM 61.0 °F 52.0 °F 72% 30.27 in 10.0 mi SE 5.8 mph - 0.00 in   Overcast
7:54 AM 62.1 °F 53.1 °F 72% 30.26 in 10.0 mi SE 6.9 mph - 0.00 in   Overcast
8:54 AM 63.0 °F 53.1 °F 70% 30.25 in 10.0 mi SSE 9.2 mph - N/A   Mostly Cloudy
9:54 AM 66.0 °F 53.1 °F 63% 30.25 in 10.0 mi SSE 9.2 mph - N/A   Mostly Cloudy
10:54 AM 70.0 °F 54.0 °F 57% 30.22 in 10.0 mi SSE 9.2 mph - N/A   Mostly Cloudy
11:54 AM 72.0 °F 55.0 °F 55% 30.22 in 10.0 mi SSW 10.4 mph - N/A   Mostly Cloudy
12:54 PM 73.9 °F 55.9 °F 53% 30.20 in 10.0 mi Variable 3.5 mph - N/A   Mostly Cloudy
1:54 PM 73.9 °F 57.0 °F 55% 30.19 in 10.0 mi South 6.9 mph - N/A   Overcast
2:54 PM 73.9 °F 57.9 °F 57% 30.17 in 10.0 mi West 5.8 mph - N/A   Overcast
3:54 PM 73.0 °F 57.9 °F 59% 30.15 in 10.0 mi NNE 3.5 mph - N/A   Overcast
4:54 PM 72.0 °F 57.9 °F 61% 30.12 in 10.0 mi NNE 6.9 mph - N/A   Overcast
5:54 PM 69.1 °F 62.1 °F 78% 30.12 in 10.0 mi ENE 5.8 mph - 0.00 in Rain Light Rain
6:36 PM 66.9 °F 63.0 °F 87% 30.13 in 3.0 mi NNW 4.6 mph - 0.07 in Rain Light Rain
6:54 PM 66.0 °F 63.0 °F 90% 30.12 in 5.0 mi North 6.9 mph - 0.13 in Rain Light Rain
7:15 PM 64.9 °F 63.0 °F 93% 30.12 in 5.0 mi NNE 6.9 mph - 0.02 in Rain Light Rain
7:27 PM 64.9 °F 63.0 °F 93% 30.13 in 4.0 mi Calm Calm - 0.07 in Rain , Thunderstorm Light Thunderstorms and Rain
7:37 PM 64.9 °F 63.0 °F 93% 30.11 in 2.5 mi NE 4.6 mph - 0.16 in Rain , Thunderstorm Light Thunderstorms and Rain
7:54 PM 64.9 °F 63.0 °F 93% 30.12 in 2.5 mi ESE 6.9 mph - 0.27 in Rain , Thunderstorm Light Thunderstorms and Rain
8:00 PM 64.9 °F 62.1 °F 90% 30.11 in 1.8 mi ENE 5.8 mph - 0.08 in Rain Rain
8:03 PM 64.9 °F 62.1 °F 90% 30.11 in 1.8 mi ENE 4.6 mph - 0.16 in Rain Rain
8:06 PM 64.9 °F 62.1 °F 90% 30.11 in 3.0 mi NE 4.6 mph - 0.18 in Rain Rain
8:22 PM 64.9 °F 63.0 °F 93% 30.10 in 4.0 mi East 9.2 mph - 0.24 in Rain Rain
8:54 PM 64.9 °F 63.0 °F 93% 30.09 in 6.0 mi SE 4.6 mph - 0.36 in Rain Rain
9:54 PM 64.9 °F 63.0 °F 93% 30.08 in 9.0 mi South 6.9 mph - 0.04 in Rain Light Rain
10:54 PM 64.9 °F 63.0 °F 93% 30.06 in 10.0 mi South 8.1 mph - 0.03 in Rain Light Rain
11:54 PM 66.0 °F 63.0 °F 90% 30.06 in 10.0 mi South 8.1 mph - 0.03 in Rain Light Rain